Regional Weather Roundup
Issued by NWS

Home | Current Version | Previous Version | Text Only | Print | Product List | Glossary Off
Versions: 1 2 3 4 5 6 7 8 9 10 11 12 13 14 15 16 17 18 19 20 21 22 23 24 25 26 27 28 29 30 31 32 33 34 35 36 37 38 39 40 41 42 43 44 45 46 47 48 49 50

000
ASUS43 KMPX 310510
RWRMN
WEATHER ROUNDUP FOR MINNESOTA
NATIONAL WEATHER SERVICE TWIN CITIES/CHANHASSEN MN
1200 AM CDT FRI JUL 31 2015


NOTE: "FAIR" INDICATES FEW OR NO CLOUDS BELOW 12,000 FEET WITH NO
SIGNIFICANT WEATHER AND/OR OBSTRUCTIONS TO VISIBILITY. N/A MEANS
CURRENT SKY AND/OR WEATHER CONDITIONS ARE NOT AVAILABLE.

MNZ060>063-068>070-310600-
   Twin Cities Metro

CITY           SKY/WX    TMP DP  RH WIND       PRES   REMARKS
TWIN CITIES    CLEAR     73  61  65 W8        30.02S
ST PAUL        CLEAR     74  59  59 W10       30.02R
CRYSTAL        CLEAR     73  59  61 W7        30.01S
BLAINE         CLEAR     73  61  64 W6        30.02S
LAKEVILLE      CLEAR     66  61  82 W3        30.04S
EDEN PRAIRIE   CLEAR     71  63  75 W6        30.02S
SOUTH ST PAUL  CLEAR     71  61  70 W6        30.02R
LAKE ELMO      FAIR      70  59  68 W5        30.03R
$$
MNZ001>005-007-008-013>017-022>024-027-028-310600-
   Northwest Minnesota

CITY           SKY/WX    TMP DP  RH WIND       PRES   REMARKS
BEMIDJI        PTCLDY    66  50  56 W12       29.99F
HALLOCK        CLEAR     57  54  88 W6        29.98S
ROSEAU         PTCLDY    63  55  77 W7        29.96S
WARROAD        PTCLDY    63  57  82 W5        29.95S
THIEF RVR FALL CLEAR     61  52  72 W8        30.00F
CROOKSTON      CLEAR     57  52  82 W7        30.02F
FOSSTON        CLEAR     61  48  63 W9        30.03S
DETROIT LAKES  CLEAR     64  52  63 NW9       30.06S
MOORHEAD       CLEAR     61  55  82 NW7       30.06S
PARK RAPIDS    CLEAR     66  52  60 NW12      30.02R
MAHNOMEN       FAIR      62  51  66 NW7       30.03S
$$
MNZ006-009>011-018-025>026-310600-
   North Central Minnesota

CITY           SKY/WX    TMP DP  RH WIND       PRES   REMARKS
BAUDETTE       PTCLDY    62  56  80 W7        29.93R
FLAG ISLAND    PTCLDY    64  57  77 W7        29.91S
INTL FALLS     PTCLDY    58  55  90 CALM      29.90F
WASKISH        MOCLDY    68  55  64 W14G23    29.95S
BIG FORK       CLEAR     61  55  82 CALM      29.95S
LONGVILLE      PTCLDY    68  54  60 W6        29.98S
GRAND RAPIDS   CLOUDY    70  54  56 W12       29.96S
CRANE LAKE     MOCLDY    59  57  94 CALM      29.92F
ORR            MOCLDY    59  55  88 CALM      29.89F
COOK           MOCLDY    64  54  68 W5        29.93F
WALKER         FAIR      65  53  64 W9        30.00R
$$
MNZ012-019>021-037-310600-
   Northeast Minnesota

CITY           SKY/WX    TMP DP  RH WIND       PRES   REMARKS
DULUTH         PTCLDY    64  53  67 W10       29.93F
ELY            MOCLDY    64  52  63 NW7       29.92R
HIBBING        PTCLDY    61  54  77 N3        29.93F
EVELETH        DRIZZLE   64  52  63 W6        29.93S
DULUTH HARBOR  CLEAR     70  59  68 SW10      29.92S
TWO HARBORS    CLEAR     66  57  72 W6        29.89F
SILVER BAY     CLEAR     64  54  68 CALM      29.88F
GRAND MARAIS     N/A     51  47  86 W3        29.85S
G MARAIS ARPRT   N/A     55  52  88 W5        29.90S
$$
MNZ029>031-032-039>041-046>048-054>057-064-310600-
   West Central Minnesota

CITY           SKY/WX    TMP DP  RH WIND       PRES   REMARKS
FERGUS FALLS   CLEAR     63  55  77 CALM      30.06S
WHEATON        CLEAR     63  57  82 W3        30.09R
MORRIS         CLEAR     63  59  88 W6        30.06S
ALEXANDRIA     CLEAR     65  58  78 W6        30.07S
ELBOW LAKE     FAIR      63  58  83 NW8       30.06S
WADENA         CLEAR     66  54  63 W7        30.04R
GLENWOOD       CLEAR     64  57  77 W8        30.07S
APPLETON       CLEAR     61  57  88 W5        30.07S
BENSON         CLEAR     63  55  77 NW5       30.06F
ORTONVILLE     CLEAR     68  59  73 W5        30.08S
MADISON        CLEAR     63  57  82 W7        30.09S
WILLMAR        FAIR      66  61  82 W3        30.08S
$$
MNZ033>034-036-042>043-049>051-058-059-310600-
   Central Minnesota

CITY           SKY/WX    TMP DP  RH WIND       PRES   REMARKS
ST CLOUD       CLEAR     65  59  81 W6        30.02S
SAUK CENTRE    FAIR      62  58  86 W8        30.05S
PAYNESVILLE    CLEAR     58  57  97 SW5       30.06S
AITKIN         MOCLDY    66  55  68 SW6       29.97F
PINE RIVER     CLEAR     66  55  68 W7        30.03S
BRAINERD       CLEAR     69  55  60 W8        30.00F
STAPLES        CLEAR     64  54  68 W12       30.03R
LONG PRAIRIE   FAIR      64  57  77 SW6       30.05S
LITTLE FALLS   CLEAR     64  55  72 CALM      30.02F
LITCHFIELD     CLEAR     70  63  78 W3        30.06S
BUFFALO        CLEAR     69  61  75 CALM      30.04S
MAPLE LAKE     CLEAR     70  61  73 W3        30.04F
$$
MNZ037-044-045-052-053-310600-
   East Central Minnesota

CITY           SKY/WX    TMP DP  RH WIND       PRES   REMARKS
PRINCETON      CLEAR     68  61  77 W6        30.02S
MORA           CLEAR     64  59  82 W5        30.01F
CAMBRIDGE      CLEAR     72  57  60 CALM      29.99S
RUSH CITY      CLEAR     66  59  77 W6        30.00S
MOOSE LAKE     CLEAR     63  54  72 W6        29.95F
HINCKLEY       FAIR      63  57  82 W6        29.98F
CLOQUET        CLEAR     66  54  63 W8        29.95S
MCGREGOR       PTCLDY    68  55  64 W5        29.97F
$$
MNZ071>073-080-081-089-090-097-098-310600-
   Southwest Minnesota

CITY           SKY/WX    TMP DP  RH WIND       PRES   REMARKS
MONTEVIDEO     CLEAR     66  55  68 W5        30.09S
GRANITE FALLS  CLEAR     62  60  94 SW5       30.09S
CANBY          CLEAR     67  59  75 W7        30.12R
MARSHALL       PTCLDY    64  57  77 W8        30.11S
REDWOOD FALLS  CLEAR     68  62  81 W7        30.07R
OLIVIA         CLEAR     63  57  82 CALM      30.06S
PIPESTONE      CLEAR     70  61  73 N5        30.14R
WINDOM         CLEAR     64  61  88 W8        30.10S
WORTHINGTON    CLEAR     68  59  73 SW8       30.12S
JACKSON        CLEAR     70  63  78 SW5       30.11R
TRACY          CLEAR     70  61  73 NW7       30.11R
SLAYTON        CLEAR     65  61  87 CALM      30.13R
$$
MNZ065>067-074>077-082>085-091>093-310600-
   South Central Minnesota

CITY           SKY/WX    TMP DP  RH WIND       PRES   REMARKS
MANKATO        PTCLDY    72  61  68 W8        30.06R
NEW ULM        PTCLDY    68  63  83 W8        30.07R
ST JAMES       CLEAR     70  63  78 W9        30.08R
FAIRMONT       CLEAR     72  61  68 W7        30.07F
GLENCOE        CLEAR     68  63  84 W3        30.05R
FARIBAULT      CLEAR     70  63  78 W8        30.05R
OWATONNA       CLEAR     66  61  82 CALM      30.05S
WASECA         PTCLDY    63  61  94 SW3       30.06S
ALBERT LEA     PTCLDY    72  64  78 SW6       30.06F
$$
MNZ078>079-086>088-094>096-310600-
   Southeast Minnesota

CITY           SKY/WX    TMP DP  RH WIND       PRES   REMARKS
ROCHESTER      CLEAR     66  60  81 SW10      30.05F
RED WING       CLEAR     64  61  88 CALM      30.00F
STANTON        PTCLDY    67  61  81 NW3       30.02R
DODGE CENTER   PTCLDY    64  59  82 W6        30.05F
WINONA         CLEAR     70  63  78 CALM      30.02S
AUSTIN         CLEAR     66  63  88 SW6       30.06S
PRESTON        CLEAR     69  58  68 SW9       30.06S
$$
ABBREVIATIONS USED IN REMARKS
   TC - TEMPERATURES IN CELSIUS
  WCI - WIND CHILL INDEX
   HX - HEAT INDEX
  VSB - VISIBILITY
$$


USA.gov is the U.S. government's official web portal to all federal, state and local government web resources and services.